sat.trackr.live / text

‹ back to catalog

STARLINK-5604

NORAD 55420 · 2023-014AF

PAYLOAD ACTIVE UNKNOWN

§ Identity

Operator
Country
US
Launch date
2023-01-31
Launch site
AFWTR
Launch vehicle
Mass (kg)
RCS (m²)

Purposes: comms

External: N2YO · Heavens-Above · Gunter

§ Orbital elements

Epoch: 2026-09-20T22:00:03.000096Z

Period
95.71 min
Inclination
69.9999°
Eccentricity
0.0005155
Mean motion
15.04585420 rev/d
Perigee alt
549.2 km
Apogee alt
556.4 km
Semi-major
6,930.9 km
B*
8.4203e-3
RAAN
272.1979°
Arg perigee
298.4911°
Mean anomaly
25.5444°
Rev number
576

§ Raw data

STARLINK-56041 55420U 23014AF  26263.91670139  .00120367  00000+0  84203-2 0  99982 55420  69.9999 272.1979 0005155 298.4911  25.5444 15.04585420  5762

JSON: /api/v1/satellites/55420 · /tle

For live sub-satellite position, see the globe view (requires WebGL).

§ Visibility from observer

Set your observer location to see the next 7 days of passes ≥ 10°. The values pass through the URL so the page stays shareable.

No JS? Fill the form by hand. The geolocation button needs JavaScript.